DW5259 Weather Reports


Display with metric or nautical units.
time (UTC)temp
F
wind
direction
speed
MPH
gust
MPH
rain 1hr
in
rain 24hr
in
rain mn
in
humidity
%
barometer
mb
20260510230037 88 305 5.0 11.0 0.00 0.00 0.00 68 1014.7
20260510224534 88 340 4.0 9.0 0.00 0.00 0.00 67 1014.7
20260510223034 89 266 4.0 11.0 0.00 0.00 0.00 65 1014.6
20260510221537 90 261 4.0 12.0 0.00 0.00 0.00 64 1014.5
20260510220032 90 209 2.0 11.0 0.00 0.00 0.00 62 1014.5
20260510214535 91 304 3.0 16.0 0.00 0.00 0.00 60 1014.5
20260510213031 92 253 6.0 12.0 0.00 0.00 0.00 60 1014.5
20260510211534 92 281 5.0 11.0 0.00 0.00 0.00 59 1014.6
20260510210039 92 258 5.0 13.0 0.00 0.00 0.00 59 1014.6
20260510204539 92 278 3.0 11.0 0.00 0.00 0.00 61 1014.7
20260510203029 92 282 6.0 10.0 0.00 0.00 0.00 60 1014.8
20260510201528 92 258 3.0 12.0 0.00 0.00 0.00 59 1014.7
20260510200029 92 280 4.0 13.0 0.00 0.00 0.00 59 1014.8
20260510194545 92 253 5.0 14.0 0.00 0.00 0.00 59 1014.8
20260510193027 93 265 2.0 15.0 0.00 0.00 0.00 59 1014.8
20260510191527 93 230 4.0 10.0 0.00 0.00 0.00 59 1014.7
20260510190039 93 244 4.0 13.0 0.00 0.00 0.00 59 1014.8
20260510184524 92 269 6.0 12.0 0.00 0.00 0.00 61 1014.9
20260510183022 92 234 3.0 14.0 0.00 0.00 0.00 61 1015.0
20260510181520 91 205 3.0 10.0 0.00 0.00 0.00 63 1015.3
20260510180022 91 246 4.0 12.0 0.00 0.00 0.00 63 1015.4
20260510174519 91 229 4.0 10.0 0.00 0.00 0.00 63 1015.7
20260510173018 91 241 3.0 10.0 0.00 0.00 0.00 63 1015.8
20260510171517 91 198 1.0 7.0 0.00 0.00 0.00 66 1016.1
20260510170014 90 190 2.0 9.0 0.00 0.00 0.00 65 1016.3
20260510164512 90 89 2.0 7.0 0.00 0.00 0.00 67 1016.4
20260510163012 90 229 4.0 9.0 0.00 0.00 0.00 65 1016.5
20260510161521 89 234 5.0 10.0 0.00 0.00 0.00 63 1016.6
20260510160009 89 229 2.0 8.0 0.00 0.00 0.00 66 1016.7
20260510154507 88 134 2.0 12.0 0.00 0.00 0.00 63 1016.7
20260510153006 87 173 2.0 10.0 0.00 0.00 0.00 64 1016.7
20260510151507 86 194 1.0 9.0 0.00 0.00 0.00 66 1016.7
20260510150124 85 161 2.0 7.0 0.00 0.00 0.00 71 1016.7
20260510144620 85 248 1.0 9.0 0.00 0.00 0.00 71 1016.7
20260510143058 85 200 3.0 8.0 0.00 0.00 0.00 74 1016.7
20260510141602 85 148 3.0 7.0 0.00 0.00 0.00 76 1016.5
20260510140053 83 148 3.0 10.0 0.00 0.00 0.00 78 1016.5
20260510134557 82 145 0.0 5.0 0.00 0.00 0.00 84 1016.5
20260510133049 80 126 3.0 7.0 0.00 0.00 0.00 85 1016.6
20260510131544 78 152 1.0 5.0 0.00 0.00 0.00 90 1016.4
20260510130039 76 142 0.0 5.0 0.00 0.00 0.00 92 1016.4
20260510124537 75 138 0.0 2.0 0.00 0.00 0.00 94 1016.3
20260510123033 75 128 0.0 0.0 0.00 0.00 0.00 97 1016.2
20260510121533 74 122 0.0 0.0 0.00 0.00 0.00 97 1016.0
20260510120030 73 121 0.0 0.0 0.00 0.00 0.00 97 1015.8
20260510114541 73 122 0.0 0.0 0.00 0.00 0.00 96 1015.5
20260510113038 72 121 0.0 0.0 0.00 0.00 0.00 96 1015.4
20260510111530 72 144 0.0 0.0 0.00 0.00 0.00 95 1015.1
20260510110033 72 144 0.0 0.0 0.00 0.00 0.00 95 1014.8
20260510104522 72 144 0.0 0.0 0.00 0.00 0.00 94 1014.4
20260510103020 73 144 0.0 0.0 0.00 0.00 0.00 94 1014.1
20260510101522 73 144 0.0 0.0 0.00 0.00 0.00 94 1014.1
20260510100029 73 144 0.0 0.0 0.00 0.00 0.00 94 1013.9
20260510094528 74 144 0.0 0.0 0.00 0.00 0.00 94 1013.5
20260510093019 74 144 0.0 1.0 0.00 0.00 0.00 94 1013.5
20260510091518 74 144 1.0 3.0 0.00 0.00 0.00 94 1013.5
20260510090018 74 151 0.0 4.0 0.00 0.00 0.00 94 1013.4
20260510084520 74 130 0.0 5.0 0.00 0.00 0.00 94 1013.4
20260510083018 74 134 1.0 7.0 0.00 0.00 0.00 95 1013.2
20260510081516 73 144 1.0 4.0 0.00 0.00 0.00 95 1013.3
20260510080016 73 183 0.0 2.0 0.00 0.00 0.00 95 1013.3
20260510074513 73 313 0.0 0.0 0.00 0.00 0.00 94 1013.5
20260510073011 73 319 0.0 0.0 0.00 0.00 0.00 94 1013.6
20260510071511 73 319 0.0 0.0 0.00 0.00 0.00 93 1013.8
20260510070008 73 319 0.0 0.0 0.00 0.00 0.00 92 1013.8
20260510064506 73 319 0.0 0.0 0.00 0.00 0.00 92 1013.9
20260510063005 74 319 0.0 0.0 0.00 0.00 0.00 92 1014.2
20260510061503 74 319 0.0 0.0 0.00 0.00 0.00 91 1014.5
20260510060002 74 319 0.0 0.0 0.00 0.00 0.00 91 1014.5
20260510054606 74 319 0.0 0.0 0.00 0.00 0.00 91 1014.7
20260510053059 74 319 0.0 0.0 0.00 0.00 0.00 90 1014.6
20260510051557 75 319 0.0 0.0 0.00 0.00 0.00 90 1014.8
20260510050054 75 319 0.0 0.0 0.00 0.00 0.00 89 1014.8
20260510044603 75 319 0.0 0.0 0.00 0.00 0.00 88 1014.9
20260510043052 75 319 0.0 0.0 0.00 0.00 0.00 87 1014.9
20260510041556 76 319 0.0 0.0 0.00 0.00 0.00 84 1014.9
20260510040047 76 319 0.0 0.0 0.00 0.00 0.00 82 1014.9
20260510034548 77 319 0.0 0.0 0.00 0.00 0.00 81 1015.1
20260510033058 77 319 0.0 0.0 0.00 0.00 0.00 79 1015.0
20260510031547 78 315 0.0 0.0 0.00 0.00 0.00 77 1015.0
20260510030043 78 315 0.0 0.0 0.00 0.00 0.00 76 1015.0
20260510024545 79 315 0.0 0.0 0.00 0.00 0.00 75 1014.9
20260510023043 79 315 0.0 1.0 0.00 0.00 0.00 74 1014.9
20260510021543 79 319 0.0 1.0 0.00 0.00 0.00 74 1014.6
20260510020043 80 318 0.0 2.0 0.00 0.00 0.00 74 1014.6
20260510014541 80 315 0.0 1.0 0.00 0.00 0.00 74 1014.3
20260510013042 80 315 0.0 1.0 0.00 0.00 0.00 74 1014.1
20260510011541 81 315 0.0 2.0 0.00 0.00 0.00 74 1013.7
20260510010045 82 306 0.0 3.0 0.00 0.00 0.00 74 1013.6
20260510004539 82 320 0.0 4.0 0.00 0.00 0.00 73 1013.3
20260510003052 83 264 0.0 3.0 0.00 0.00 0.00 73 1013.0
20260510001543 84 259 1.0 6.0 0.00 0.00 0.00 71 1012.8
20260510000048 85 252 0.0 4.0 0.00 0.00 0.00 67 1012.4
20260509234546 85 254 1.0 4.0 0.00 0.00 0.00 63 1012.3
20260509233037 86 252 0.0 11.0 0.00 0.00 0.00 61 1012.2
20260509231536 86 227 2.0 10.0 0.00 0.00 0.00 60 1012.2